GW5214 Weather Reports


time (UTC)temp
F
wind
direction
speed
knots
gust
knots
rain 1hr
in
rain 24hr
in
rain mn
in
humidity
%
barometer
mb
20260508213016 73 336 1.7 6.1 0.00 0.00 0.00 24 1008.6
20260508211541 72 326 1.7 7.0 0.00 0.00 0.00 28 1008.9
20260508210009 73 242 0.9 3.5 0.00 0.00 0.00 33 1009.0
20260508204541 71 180 1.7 7.0 0.00 0.00 0.00 27 1009.2
20260508203014 72 266 1.7 5.2 0.00 0.00 0.00 31 1009.2
20260508201536 72 244 2.6 6.1 0.00 0.00 0.00 26 1009.3
20260508200005 71 316 3.5 7.8 0.00 0.00 0.00 25 1009.4
20260508194535 71 340 2.6 7.0 0.00 0.00 0.00 25 1009.4
20260508193003 72 263 1.7 7.8 0.00 0.00 0.00 28 1009.5
20260508191546 71 240 2.6 7.0 0.00 0.00 0.00 26 1009.6
20260508190009 71 40 1.7 6.1 0.00 0.00 0.00 30 1009.6
20260508184536 71 268 1.7 6.1 0.00 0.00 0.00 39 1009.7
20260508183001 70 189 0.0 4.3 0.00 0.00 0.00 35 1009.8
20260508181531 69 202 0.9 3.5 0.00 0.00 0.00 36 1010.0
20260508180116 69 199 0.0 3.5 0.00 0.00 0.00 35 1010.2
20260508174534 67 231 0.9 4.3 0.00 0.00 0.00 34 1010.3
20260508173059 67 190 0.9 2.6 0.00 0.00 0.00 35 1010.3
20260508171527 67 215 0.9 2.6 0.00 0.00 0.00 38 1010.4
20260508170106 66 312 0.9 3.5 0.00 0.00 0.00 32 1010.4
20260508164534 65 239 0.9 3.5 0.00 0.00 0.00 37 1010.5
20260508163054 65 246 0.9 2.6 0.00 0.00 0.00 37 1010.5
20260508161522 64 204 0.0 2.6 0.00 0.00 0.00 39 1010.4
20260508160053 63 126 0.0 4.3 0.00 0.00 0.00 37 1010.5
20260508154521 62 105 0.0 1.7 0.00 0.00 0.00 41 1010.5
20260508153056 61 246 0.0 1.7 0.00 0.00 0.00 36 1010.4
20260508151520 60 94 0.0 2.6 0.00 0.00 0.00 46 1010.4
20260508150050 59 210 0.0 1.7 0.00 0.00 0.00 50 1010.2
20260508144526 59 145 0.0 1.7 0.00 0.00 0.00 48 1010.1
20260508143054 60 241 1.7 4.3 0.00 0.00 0.00 45 1010.1
20260508141514 61 348 0.0 1.7 0.00 0.00 0.00 35 1009.9
20260508140045 58 9 0.9 2.6 0.00 0.00 0.00 41 1009.8
20260508134512 56 5 0.9 2.6 0.00 0.00 0.00 43 1009.6
20260508133042 55 355 0.9 2.6 0.00 0.00 0.00 43 1009.5
20260508131511 54 360 0.9 1.7 0.00 0.00 0.00 43 1009.3
20260508130041 54 344 0.9 2.6 0.00 0.00 0.00 42 1009.1
20260508124507 54 23 0.9 2.6 0.00 0.00 0.00 41 1008.9
20260508123038 54 11 0.9 2.6 0.00 0.00 0.00 42 1008.8
20260508121506 54 9 0.9 3.5 0.00 0.00 0.00 43 1008.7
20260508120047 54 9 0.0 2.6 0.00 0.00 0.00 43 1008.7
20260508114502 54 5 0.0 2.6 0.00 0.00 0.00 42 1008.5
20260508113031 54 5 0.0 1.7 0.00 0.00 0.00 42 1008.4
20260508111501 54 10 0.0 1.7 0.00 0.00 0.00 41 1008.4
20260508110033 55 9 0.0 1.7 0.00 0.00 0.00 41 1008.3
20260508104601 54 13 0.9 2.6 0.00 0.00 0.00 41 1008.3
20260508103039 55 5 0.9 2.6 0.00 0.00 0.00 40 1008.2
20260508101601 58 355 0.0 2.6 0.00 0.00 0.00 35 1008.1
20260508100029 59 340 0.0 2.6 0.00 0.00 0.00 35 1008.0
20260508094600 56 24 0.0 1.7 0.00 0.00 0.00 37 1008.0
20260508093037 57 21 0.0 2.6 0.00 0.00 0.00 35 1008.0
20260508091558 58 45 1.7 3.5 0.00 0.00 0.00 35 1008.1
20260508090027 56 5 0.0 4.3 0.00 0.00 0.00 40 1008.1
20260508084559 55 18 0.0 1.7 0.00 0.00 0.00 41 1008.1
20260508083024 56 9 1.7 2.6 0.00 0.00 0.00 39 1008.2
20260508081602 56 23 1.7 2.6 0.00 0.00 0.00 40 1008.2
20260508080023 56 10 0.9 2.6 0.00 0.00 0.00 41 1008.1
20260508074551 56 348 0.0 1.7 0.00 0.00 0.00 42 1008.1
20260508073021 57 5 0.0 2.6 0.00 0.00 0.00 42 1008.0
20260508071548 58 34 0.9 2.6 0.00 0.00 0.00 40 1008.0
20260508070017 57 14 0.0 2.6 0.00 0.00 0.00 43 1008.0
20260508064547 57 9 0.0 1.7 0.00 0.00 0.00 45 1008.0
20260508063015 57 9 0.9 2.6 0.00 0.00 0.00 44 1007.9
20260508061542 58 15 0.9 2.6 0.00 0.00 0.00 43 1007.9
20260508060011 58 17 1.7 2.6 0.00 0.00 0.00 43 1007.9
20260508054541 58 5 1.7 2.6 0.00 0.00 0.00 43 1008.0
20260508053009 59 360 0.0 1.7 0.00 0.00 0.00 42 1008.0
20260508051542 60 20 0.9 3.5 0.00 0.00 0.00 41 1008.0
20260508050007 60 5 1.7 2.6 0.00 0.00 0.00 41 1007.9
20260508044536 60 5 0.9 2.6 0.00 0.00 0.00 41 1007.9
20260508043002 60 9 0.9 3.5 0.00 0.00 0.00 41 1007.9
20260508041536 60 12 0.0 2.6 0.00 0.00 0.00 41 1007.8
20260508034532 60 360 0.9 2.6 0.00 0.00 0.00 41 1007.7
20260508033100 61 15 0.9 2.6 0.00 0.00 0.00 41 1007.5
20260508031529 61 23 0.9 2.6 0.00 0.00 0.00 41 1007.3
20260508030059 62 26 0.9 2.6 0.00 0.00 0.00 40 1007.2
20260508024526 63 11 0.0 1.7 0.00 0.00 0.00 40 1007.2
20260508023055 65 346 0.9 1.7 0.00 0.00 0.00 37 1007.2
20260508021524 66 242 0.0 1.7 0.00 0.00 0.00 34 1007.1
20260508020100 66 234 0.0 1.7 0.00 0.00 0.00 34 1007.1
20260508014522 67 219 0.0 2.6 0.00 0.00 0.00 34 1007.2
20260508013057 68 217 0.9 2.6 0.00 0.00 0.00 33 1007.2
20260508011521 69 236 0.9 2.6 0.00 0.00 0.00 31 1007.1
20260508010051 69 191 0.9 3.5 0.00 0.00 0.00 34 1007.2
20260508004519 70 254 1.7 3.5 0.00 0.00 0.00 30 1007.3
20260508003050 70 295 1.7 4.3 0.00 0.00 0.00 30 1007.3
20260508001536 71 250 0.9 4.3 0.00 0.00 0.00 33 1007.3
20260508000049 71 228 0.9 5.2 0.00 0.00 0.00 32 1007.3
20260507234517 71 246 1.7 4.3 0.00 0.00 0.00 30 1007.7
20260507233045 71 256 0.0 3.5 0.00 0.00 0.00 32 1008.0
20260507231514 71 246 1.7 3.5 0.00 0.00 0.00 32 1008.2
20260507230044 71 201 0.0 4.3 0.00 0.00 0.00 32 1008.5
20260507224512 70 214 0.9 4.3 0.00 0.00 0.00 36 1008.8
20260507223042 71 183 0.9 3.5 0.00 0.00 0.00 34 1009.1
20260507221510 70 224 0.9 3.5 0.00 0.00 0.00 33 1009.3
20260507220044 66 205 0.0 1.7 0.00 0.00 0.00 37 1009.5
20260507214510 66 222 0.0 1.7 0.00 0.00 0.00 38 1009.7